Wind_Speed
24 23 22 21 21 22 23 22 22 22 21 19 17 17 18 19 18 11 7 10 3 9 9 13 9 10 7 3 7 3 4 3 7 7 7 10 3 3 17 22 20 8 9 22 33
26 25 24 23 23 24 24 22 25 24 19 17 16 17 16 16 13 13 21 16 9 10 12 14 7 8 3 5 4 6 6 18 13 17 5 13 10 10 7 15 14 4 15 31 33
28 27 27 25 25 25 23 27 26 19 18 18 17 15 12 10 4 7 7 4 13 11 8 7 10 6 5 2 5 5 8 11 16 23 19 13 15 6 12 15 12 17 26 24 28
31 31 30 28 27 27 27 30 21 19 20 19 14 10 6 1 2 3 1 7 12 11 8 4 4 5 4 6 7 4 11 6 6 19 7 14 6 7 12 20 13 23 29 25 23
33 33 31 31 31 31 31 29 21 20 18 13 8 4 1 1 9 7 4 5 9 9 7 5 4 5 5 4 6 4 7 5 3 7 17 17 15 12 12 12 19 21 23 24 24
35 36 35 35 34 34 36 27 20 21 12 8 4 1 2 2 5 9 9 5 5 7 5 7 6 6 5 6 2 5 6 10 8 5 6 9 12 6 20 9 15 24 25 24 24
38 38 38 37 36 36 33 24 29 15 7 4 4 1 1 10 1 10 10 6 6 11 4 11 11 3 4 6 6 5 7 7 9 10 12 7 11 11 16 5 18 20 20 19 23
39 40 40 38 37 36 27 30 20 5 2 2 3 3 6 7 6 12 16 12 9 9 14 14 16 3 2 2 8 4 4 5 8 7 9 6 11 21 14 8 17 20 20 24 24
40 41 41 39 38 29 28 27 5 3 2 1 2 1 8 9 3 9 16 9 8 16 13 14 2 3 5 3 5 5 4 6 9 5 6 6 9 14 7 5 5 19 21 23 22
40 42 42 40 40 25 28 7 6 3 3 2 3 3 6 2 6 3 4 14 3 0 0 1 5 1 4 5 4 6 3 5 7 11 11 9 8 8 10 6 3 14 18 22 23
41 43 42 41 33 21 25 4 6 4 3 5 3 5 11 13 3 3 3 1 2 3 2 3 4 8 12 10 12 5 6 12 16 16 4 11 8 10 10 5 3 10 11 16 20
40 42 43 40 22 14 17 5 1 6 8 9 16 11 22 14 4 3 6 3 3 5 2 4 6 13 11 8 11 10 10 13 12 8 2 8 9 6 6 7 5 2 5 19 23
40 42 43 40 14 14 6 14 16 13 2 9 6 5 6 8 5 4 10 5 5 4 7 6 11 12 6 12 12 11 6 6 5 4 4 2 8 7 11 6 5 3 1 7 5
39 41 42 42 5 21 7 19 20 15 3 6 3 6 4 4 4 6 15 7 2 4 4 5 4 7 9 7 4 2 3 3 9 7 6 5 5 8 6 9 5 4 6 12 12
38 40 42 30 16 8 11 23 25 1 4 3 3 4 1 5 2 3 13 2 5 7 2 8 7 11 10 8 2 8 3 4 4 6 4 8 3 8 6 8 8 10 10 8 10
39 40 43 16 13 11 19 26 4 4 2 2 4 3 1 2 4 2 2 4 2 2 2 8 5 4 10 10 4 5 3 7 5 4 3 8 5 4 6 7 8 8 12 15 7
40 40 32 14 5 14 19 5 4 4 5 5 4 3 3 5 5 7 5 4 5 3 6 7 3 4 8 9 10 10 6 4 5 5 6 2 4 7 6 5 3 7 12 13 15
42 36 24 20 13 15 9 5 3 4 4 2 5 8 2 3 7 2 1 4 6 3 2 3 8 6 9 4 5 8 5 4 6 4 8 5 2 3 6 6 4 5 10 15 13
38 27 14 7 2 2 5 4 5 2 7 3 5 4 5 9 4 6 4 3 3 3 6 2 5 5 8 6 3 10 7 5 2 2 3 2 4 4 3 4 8 10 11 12 12
31 15 13 9 7 3 5 4 4 5 6 4 4 4 4 8 8 10 4 5 3 7 4 0 3 3 5 6 2 2 6 6 4 4 4 5 1 4 6 7 8 12 8 4 4
10 4 6 11 10 5 2 5 6 7 13 3 1 3 4 2 2 5 6 5 4 2 6 2 3 7 5 4 5 9 6 4 2 3 2 2 5 6 4 3 7 7 8 7 5
6 3 3 5 3 0 2 4 8 15 13 8 5 6 3 6 3 2 3 2 8 2 1 3 5 1 6 6 10 6 4 3 3 7 3 3 6 1 3 1 3 5 8 7 5
3 3 10 3 1 2 6 6 4 6 9 3 2 4 1 2 4 4 5 6 9 2 6 3 2 4 9 7 7 3 5 3 2 2 5 2 6 3 4 1 4 4 5 5 5
3 3 4 4 2 3 6 6 8 8 5 8 4 3 4 4 2 4 5 5 8 6 11 7 3 5 5 6 5 7 13 10 1 1 4 5 4 3 5 6 4 5 6 2 3
1 4 2 3 5 6 2 4 6 7 2 3 7 6 5 4 5 6 6 8 5 4 4 4 1 1 4 5 5 9 12 13 10 9 4 5 4 4 6 6 7 6 4 5 5
1 2 5 4 4 5 3 4 5 10 4 11 3 5 8 6 3 3 3 3 4 6 2 3 3 1 3 7 8 10 9 7 5 4 2 3 4 4 6 4 2 5 6 5 0
4 6 3 4 4 3 2 6 14 9 8 6 2 3 3 3 1 2 3 4 6 3 4 3 3 2 6 7 8 6 3 3 2 2 3 3 5 6 3 4 3 7 6 6 3
Wind_Direction
360 356 353 350 348 345 342 340 338 333 327 323 321 320 318 317 314 297 242 241 169 162 138 136 165 188 212 231 158 134 77 58 187 233 243 258 208 321 61 13 300 224 152 162 151
2 359 357 352 348 345 343 340 335 329 326 321 319 317 317 320 316 259 275 255 219 188 158 156 172 181 220 226 201 162 142 196 205 226 252 269 329 118 104 179 277 112 119 155 137
0 357 355 352 348 346 343 338 334 333 326 318 314 312 316 325 307 251 312 248 201 200 190 196 183 165 208 232 233 213 230 188 219 225 231 252 278 292 153 211 220 155 154 162 149
360 357 354 351 348 345 341 338 338 331 323 314 309 309 313 347 242 309 52 117 186 201 211 187 179 185 226 221 262 262 271 178 249 222 224 243 285 265 206 232 173 161 160 165 168
358 356 354 351 350 344 342 342 341 339 327 319 316 316 84 75 254 245 178 147 170 179 195 178 190 170 219 243 312 253 284 281 233 209 215 246 262 256 269 243 151 156 167 176 172
358 357 354 351 349 344 343 340 342 336 329 330 338 5 131 251 259 202 191 190 191 190 192 194 212 184 262 242 225 257 310 319 312 263 227 221 258 223 282 113 150 166 176 181 177
357 356 353 350 347 343 339 338 334 329 315 328 326 117 234 242 214 193 196 209 212 205 200 239 249 145 311 309 302 309 350 331 299 310 304 337 308 280 271 191 168 173 177 181 187
355 354 352 350 347 342 337 337 330 348 356 358 341 131 248 279 268 266 222 238 234 223 231 260 269 247 197 290 5 351 24 16 292 265 260 115 271 278 285 252 201 180 180 189 188
354 352 350 349 347 341 340 342 27 48 55 357 83 104 274 320 259 270 213 229 238 232 233 257 252 187 17 59 2 346 249 259 302 267 267 158 261 281 286 339 247 186 185 189 191
351 350 349 347 348 344 347 12 43 70 45 16 277 319 272 276 214 197 196 241 249 297 323 242 47 27 20 76 236 239 237 274 263 282 306 289 261 280 297 344 187 186 194 192 192
349 349 348 346 349 352 5 20 16 350 43 227 235 273 286 304 274 213 216 126 39 32 247 293 108 241 239 211 231 223 248 265 273 278 267 278 281 283 296 344 134 172 183 215 216
347 346 346 344 350 10 14 60 186 267 306 259 250 251 261 266 293 268 186 143 150 236 6 353 258 247 244 230 234 243 260 271 282 258 73 308 297 304 330 309 292 304 188 210 215
344 345 345 343 350 357 2 11 350 345 334 296 224 216 232 151 238 250 149 189 194 228 247 196 246 270 256 262 249 256 229 246 265 310 315 30 328 330 311 312 39 35 118 156 190
343 344 344 343 0 339 299 342 340 335 45 281 231 263 183 141 292 187 196 172 217 242 286 246 261 319 311 308 197 323 245 341 321 20 309 90 287 308 286 295 336 320 344 45 48
340 341 339 341 309 312 316 329 329 60 39 178 211 197 116 156 211 249 194 128 227 250 74 254 302 306 303 256 317 249 243 294 298 322 21 316 72 270 18 335 325 329 359 94 74
335 335 334 331 304 298 325 324 328 40 348 262 148 210 88 229 266 308 214 49 248 283 197 254 281 290 263 289 263 258 5 19 37 75 10 268 132 325 350 297 333 354 356 358 33
331 331 325 309 262 315 324 0 34 106 319 357 5 26 231 255 265 176 211 196 207 100 296 321 284 283 23 19 351 29 44 329 347 357 234 258 65 223 269 322 322 310 347 5 353
329 331 322 291 289 302 337 49 96 269 350 45 358 338 333 296 285 221 203 235 228 163 137 146 321 15 356 70 250 283 152 159 275 243 272 334 254 218 226 247 259 345 21 17 7
332 331 315 314 118 222 63 65 210 284 322 24 8 348 332 353 303 13 336 253 300 126 145 106 275 319 48 343 19 324 352 229 230 22 61 240 353 316 310 338 2 21 30 34 6
333 326 301 129 178 86 69 253 273 324 316 20 47 57 344 332 9 8 346 330 74 30 67 246 323 299 318 21 16 100 274 346 8 339 306 311 204 240 319 326 335 359 3 11 339
341 0 321 157 169 52 143 242 292 280 350 65 54 295 281 282 335 324 311 354 48 13 71 86 92 296 26 35 303 338 342 7 113 147 202 240 262 219 227 285 315 336 331 313 8
2 345 133 351 43 58 186 224 304 310 312 247 182 210 256 296 285 311 305 292 344 332 102 206 138 249 253 262 268 189 258 113 93 298 246 177 268 116 111 334 324 359 321 350 1
342 268 310 193 212 289 299 300 282 329 328 281 145 106 117 347 350 320 329 299 337 263 187 200 1 6 346 349 354 22 344 9 190 89 253 175 275 96 40 16 244 270 330 39 22
3 342 317 30 83 43 9 303 332 323 292 7 315 66 18 327 208 254 307 332 37 36 52 63 87 144 184 228 254 309 322 323 75 354 264 231 271 274 317 310 322 336 353 10 180
139 260 235 329 333 331 349 274 316 322 286 23 339 326 264 258 291 337 8 359 6 52 42 100 155 11 266 257 289 295 309 320 316 281 236 269 206 286 281 288 305 298 272 235 274
233 19 341 276 304 356 338 293 311 330 325 302 90 319 34 58 15 7 28 67 280 331 30 4 254 312 274 290 280 288 315 331 327 352 16 295 281 240 290 280 312 319 321 337 36
317 337 109 278 334 28 262 340 319 319 310 306 187 96 87 128 182 214 197 215 211 226 292 174 167 60 271 275 312 309 252 315 249 245 245 275 253 334 291 306 359 326 348 349 84
Height
806 803 799 796 793 789 785 782 778 775 771 768 766 764 762 759 757 756 753 746 748 751 754 756 760 762 764 764 765 777 812 827 814 795 765 743 753 735 741 759 753 732 730 735 744
805 802 798 795 791 787 783 779 776 771 768 765 763 762 759 757 755 749 739 741 745 749 753 754 760 761 767 761 761 775 807 803 779 764 757 741 736 737 756 762 746 734 732 736 741
806 801 797 793 789 785 781 777 772 768 765 762 760 759 758 756 755 739 735 735 741 746 750 752 754 758 769 758 756 759 774 765 765 752 745 745 743 735 752 760 739 738 734 735 740
805 800 795 791 787 782 778 773 769 765 762 759 757 756 756 756 765 735 735 735 740 744 747 749 752 764 766 768 747 765 747 748 745 744 750 751 738 740 735 725 716 720 721 730 733
803 798 793 788 784 779 774 769 765 762 758 756 755 755 756 758 747 734 735 736 739 741 744 747 752 757 767 756 751 756 746 740 736 737 741 736 743 735 725 709 710 719 726 729 728
802 796 791 786 780 775 769 764 761 759 756 755 754 754 755 763 732 732 734 736 738 739 741 743 744 744 753 755 757 747 745 742 733 735 733 741 737 732 708 707 714 716 721 724 725
800 795 789 783 777 770 765 761 758 754 754 754 754 754 755 746 732 733 734 734 734 735 738 738 739 746 747 755 740 743 756 748 739 735 735 729 740 731 707 706 715 717 719 723 724
799 793 787 780 774 767 761 757 752 752 753 753 753 753 752 730 732 732 732 733 734 734 735 734 736 741 743 741 752 757 762 782 742 737 730 737 761 717 703 706 711 712 712 714 717
799 792 785 778 772 764 759 753 750 751 752 753 753 753 749 730 729 727 729 730 731 732 733 732 734 743 745 765 783 776 793 779 761 728 732 735 749 713 703 701 704 708 706 708 712
799 792 784 777 771 764 758 752 752 752 752 752 753 759 736 731 726 726 726 728 729 729 734 736 748 760 769 782 807 787 783 776 771 738 733 740 740 720 703 703 702 704 707 702 704
798 791 784 777 770 766 759 754 759 758 754 754 750 748 736 727 725 724 725 727 728 734 755 745 768 780 766 764 759 764 771 773 753 733 739 738 738 723 707 703 706 708 712 709 707
799 792 785 777 770 768 765 765 768 770 769 744 740 741 731 730 733 725 726 737 740 757 748 761 775 748 741 748 754 759 769 767 746 729 731 739 737 718 710 708 702 702 708 699 698
799 792 784 775 770 769 767 767 767 766 776 748 734 732 727 725 732 728 725 731 743 756 756 771 754 731 740 745 751 754 765 760 752 736 729 735 749 735 712 704 702 697 696 699 702
798 791 785 776 773 772 768 766 765 764 793 761 740 729 723 722 735 716 719 727 737 749 745 753 732 737 741 742 737 755 729 733 740 755 776 738 789 746 725 716 706 702 698 703 704
797 791 785 782 779 775 769 765 762 762 804 743 737 718 719 733 727 722 714 720 742 744 744 758 743 744 746 738 725 744 720 728 735 753 760 752 776 754 732 732 720 707 701 704 705
793 789 783 780 777 770 767 763 761 789 791 751 732 736 738 733 730 721 722 718 722 736 738 743 725 730 728 719 719 714 727 745 755 773 795 761 773 776 770 758 730 719 711 706 710
790 785 780 776 772 769 766 763 793 800 747 758 752 742 746 748 738 734 738 744 757 768 771 750 741 726 722 738 727 740 763 794 798 802 800 758 774 782 755 742 740 735 724 721 717
787 780 774 769 769 769 767 780 797 771 762 746 749 747 753 741 738 731 740 754 743 750 772 775 777 743 730 745 754 750 759 793 800 807 782 755 771 766 743 737 736 729 729 721 721
785 775 769 765 768 769 778 803 793 770 758 756 754 761 761 749 747 740 741 747 738 734 766 773 770 735 732 732 739 756 769 747 770 770 789 775 760 747 739 735 729 727 730 725 722
787 778 768 766 768 770 790 800 779 758 754 752 772 766 780 769 767 764 755 740 745 737 737 755 779 750 737 731 737 751 742 770 780 789 793 783 772 771 749 742 735 730 731 727 719
789 788 767 767 769 782 803 796 773 753 754 757 766 770 769 769 763 768 759 745 736 740 740 752 771 770 750 761 767 761 772 766 774 785 794 804 784 747 744 741 740 736 731 725 714
797 801 769 772 788 795 797 777 764 759 748 751 750 758 763 763 765 762 762 748 735 732 750 746 776 787 770 750 742 749 755 771 792 788 785 788 780 731 739 738 740 736 735 725 715
808 799 769 770 800 799 785 775 766 761 757 750 752 753 754 763 774 757 752 736 733 737 750 747 779 801 789 771 751 755 754 757 770 782 781 790 776 745 740 741 740 736 731 727 723
811 810 784 777 784 788 792 784 778 759 758 754 752 747 757 764 760 764 758 742 737 741 744 750 781 788 807 787 773 774 759 753 764 788 776 775 760 745 746 743 738 733 727 722 722
812 807 795 806 795 794 789 784 780 776 757 756 760 756 760 770 765 768 760 757 746 749 752 762 780 771 773 767 762 762 758 752 760 757 765 754 755 748 745 742 736 731 727 722 716
814 810 802 803 796 793 789 785 781 772 769 765 767 763 765 776 769 772 767 768 765 758 757 764 779 771 776 764 759 760 755 754 750 750 749 752 752 744 739 735 734 730 723 718 713
807 805 806 802 799 799 794 790 783 774 764 760 758 762 766 762 756 756 756 759 760 762 766 771 778 784 788 772 768 777 765 761 758 756 756 760 747 743 737 737 739 735 727 722 715